SCP
1 1 1 1 0 0 0 1 0 1 0 0 0 0 0 0 0 0 0 0 0 0 0 0 0 0 1 0 0 0 0 0 0 0 0 -0 0 0 0 0 0 0 0
1 1 1 1 1 1 0 0 0 0 0 0 0 0 0 0 0 0 0 0 0 0 0 0 0 0 0 0 0 0 0 0 0 0 0 0 0 0 0 0 0 0 0
1 1 1 1 1 1 1 0 0 0 0 0 0 0 0 0 0 0 0 -0 0 0 0 0 0 0 0 0 0 0 0 0 0 0 0 0 0 0 0 0 0 0 0
1 1 1 1 1 1 1 1 0 0 0 0 0 0 0 0 0 0 0 0 0 0 0 0 0 0 0 0 0 0 0 0 0 0 0 0 0 0 0 0 0 0 0
1 1 1 1 1 1 1 1 0 1 0 0 0 0 0 0 0 0 0 0 0 0 0 0 0 0 1 1 0 0 0 0 0 0 0 0 0 0 0 0 0 0 0
1 2 1 1 1 1 1 1 0 0 0 0 0 0 0 0 0 0 0 0 0 0 0 0 0 0 1 0 0 0 0 0 0 0 0 0 0 0 0 0 0 0 0
2 1 1 1 1 1 1 0 0 0 0 0 0 0 0 0 0 0 0 0 0 0 0 0 0 0 1 0 0 0 0 0 0 0 0 0 0 0 0 0 0 0 0
1 1 1 1 1 1 0 0 0 0 0 0 0 0 0 0 0 0 0 0 0 0 0 0 0 1 1 1 1 0 1 1 0 0 0 0 0 0 0 0 0 0 0
1 1 1 1 0 0 0 0 0 0 0 0 0 0 0 0 0 0 0 0 0 0 0 0 0 0 1 1 1 1 1 0 0 0 0 0 0 0 0 0 0 0 -0
0 0 0 0 0 0 0 0 0 0 0 0 0 -0 0 0 0 0 0 0 0 0 0 0 0 0 1 1 1 1 0 0 0 0 0 0 0 0 0 0 0 0 0
0 0 0 0 0 0 0 0 0 0 -0 -0 -0 -0 0 0 -0 0 0 0 0 0 0 0 0 1 1 1 1 0 0 0 0 0 0 0 0 0 0 0 0 0 -0
0 0 0 0 0 0 0 0 0 -0 0 0 0 0 0 0 0 0 0 0 0 0 0 0 0 0 1 1 0 0 0 0 0 0 0 0 0 -0 0 -0 0 -0 0
0 0 0 0 -0 -0 0 0 0 0 0 0 0 0 0 0 0 0 0 0 0 0 0 0 0 0 0 0 0 0 0 0 0 0 0 0 0 0 -0 -0 0 0 0
0 -0 0 0 -0 -0 -0 0 0 0 0 0 0 0 0 0 0 0 0 0 0 0 0 0 0 0 0 0 0 -0 0 0 -0 0 0 0 0 0 0 0 0 0 -0
-0 -0 -0 -0 -0 -0 0 0 0 0 0 0 0 0 0 0 0 0 0 0 0 0 0 0 0 0 0 0 0 0 0 -0 -0 0 0 0 0 0 0 -0 0 -0 -0
-0 0 0 -0 0 -0 -0 0 -0 -0 0 0 0 0 0 0 0 0 0 0 0 0 0 0 0 0 0 0 0 0 0 0 0 0 0 0 0 0 0 -0 -0 0 0
0 -0 0 -0 0 0 0 0 0 0 -0 0 0 0 0 0 0 0 0 0 0 0 0 0 0 0 0 -0 0 0 0 0 0 0 0 0 0 0 0 -0 -0 0 -0
-0 0 0 0 0 -0 -0 0 0 0 0 0 0 0 0 0 0 0 0 0 0 0 0 -0 0 0 0 0 0 0 0 0 0 0 0 0 0 -0 -0 0 0 -0 -0
-0 0 0 0 -0 -0 -0 -0 -0 0 0 0 0 0 0 0 0 0 0 0 0 0 0 0 0 0 0 -0 0 0 0 0 0 0 0 0 0 0 0 -0 -0 -0 -0
-0 0 0 0 0 0 -0 -0 0 0 -0 0 0 0 0 0 0 0 0 -0 -0 0 0 0 0 -0 -0 0 0 0 0 0 0 0 0 0 0 -0 -0 -0 -0 -0 -0
0 0 0 0 0 0 0 0 -0 0 0 0 0 0 0 0 0 0 0 0 -0 0 0 0 0 0 -0 0 -0 -0 -0 -0 -0 -0 0 0 0 0 -0 -0 -0 -0 -0
0 0 0 0 0 0 0 -0 -0 0 0 0 0 0 0 -0 -0 0 0 0 0 0 0 -0 0 -0 -0 -0 -0 -0 -0 -0 0 -0 0 0 0 -0 -0 -0 -0 -0 0
0 0 0 0 0 0 0 -0 -0 -0 0 0 0 0 0 0 0 -0 -0 0 0 0 0 0 0 -0 0 -0 0 -0 -0 0 0 -0 -0 0 0 -0 -0 0 0 0 0
0 0 0 0 0 0 0 0 0 -0 0 0 0 0 0 0 -0 -0 -0 -0 -0 0 0 0 0 0 -0 0 0 0 -0 0 0 0 0 -0 -0 -0 0 0 0 0 0
-0 0 0 -0 0 0 0 0 0 -0 0 0 0 0 0 0 0 -0 -0 -0 -0 0 0 -0 -0 -0 -0 -0 -0 -0 -0 0 0 0 0 -0 0 0 0 0 0 0 0
0 -0 -0 -0 0 0 -0 0 0 0 -0 0 0 0 0 0 0 -0 0 0 0 -0 -0 -0 -0 -0 -0 -0 -0 -0 0 0 0 -0 0 0 0 0 0 0 0 0 0
Wind_Speed_500mb
26 27 31 34 31 28 24 24 26 30 29 27 25 31 43 42 21 28 33 49 36 40 46 41 37 44 44 39 40 45 46 46 57 54 58 54 47 49 44 41 39 33 27
26 27 33 39 35 32 30 30 30 27 27 24 27 27 29 37 38 28 28 36 29 33 41 39 36 40 40 37 39 44 46 48 59 60 61 56 52 49 46 43 36 34 27
26 29 31 47 43 40 36 39 38 32 27 27 28 28 29 31 39 47 40 35 25 24 29 37 36 36 35 34 38 45 47 46 50 64 60 55 53 50 48 42 40 32 29
27 31 35 45 41 39 40 39 36 34 26 25 28 32 27 32 31 33 31 27 28 29 24 28 34 32 30 28 35 44 49 47 48 69 64 62 58 51 44 41 36 32 21
26 33 37 41 38 37 37 37 40 35 28 30 29 25 23 29 33 26 29 29 30 30 25 24 27 31 26 28 34 37 46 48 48 66 70 62 58 50 39 41 33 27 26
28 33 37 42 35 33 36 38 35 31 30 29 26 24 22 30 29 31 29 30 25 27 27 28 20 32 30 31 30 40 44 51 50 65 62 60 62 53 46 37 33 31 26
26 32 38 35 33 33 34 29 30 31 30 28 22 24 26 28 26 30 30 27 32 29 29 29 21 23 32 33 34 38 50 59 66 63 68 60 57 45 45 40 39 26 21
25 32 35 33 31 28 24 23 29 34 34 33 28 21 17 21 30 30 32 35 30 30 31 32 30 26 36 35 34 35 54 86 68 67 60 53 48 45 45 50 42 33 24
22 26 27 27 23 18 26 27 28 30 29 32 36 21 15 19 30 35 34 30 32 35 36 33 33 41 38 30 31 42 73 56 74 73 73 62 44 49 49 49 43 28 15
21 22 27 18 13 15 20 18 19 24 27 31 32 39 21 14 26 25 30 41 36 32 31 38 39 35 40 40 48 51 54 76 80 81 81 69 62 51 56 45 33 24 18
21 11 14 8 10 14 9 10 6 13 21 25 29 27 24 20 33 23 27 30 33 30 30 32 32 36 43 50 59 56 66 56 67 81 88 71 64 47 38 32 28 25 19
12 14 9 8 11 7 6 5 8 5 10 15 22 21 22 22 21 26 23 30 27 26 26 28 30 37 50 62 54 56 68 67 88 92 75 71 65 41 30 33 29 24 27
11 10 11 10 8 7 7 7 9 9 8 9 13 20 17 17 17 14 17 24 20 21 16 24 36 47 55 60 48 78 80 93 92 85 91 74 53 49 40 34 27 26 24
11 12 11 7 4 3 5 8 7 9 9 9 9 15 16 13 12 15 17 25 23 17 22 34 42 39 41 50 77 90 105 96 89 89 66 66 47 47 41 33 27 25 24
9 11 8 4 4 2 4 6 5 7 7 5 6 14 14 16 2 15 20 28 26 26 30 36 55 56 56 90 92 95 85 76 79 64 56 51 47 38 48 39 31 28 27
13 11 6 2 2 3 5 9 5 7 8 7 6 11 10 7 12 12 21 22 23 35 41 53 52 80 90 87 83 87 86 76 65 59 52 46 31 30 33 37 33 32 24
12 8 6 4 3 3 5 5 9 8 9 15 16 14 10 9 12 15 18 20 28 43 64 65 70 81 77 88 77 70 70 64 60 57 54 43 36 33 33 26 20 21 19
11 8 7 5 3 5 5 8 5 19 15 17 14 14 13 11 12 17 28 32 35 46 71 90 77 74 86 73 69 68 66 60 56 51 47 39 45 39 28 22 20 18 15
12 11 8 5 4 2 4 5 3 15 17 12 13 16 21 19 27 28 35 29 38 62 85 97 75 79 72 65 56 62 54 50 48 46 47 46 39 31 26 24 21 16 13
14 13 11 9 7 7 12 9 11 20 11 11 13 21 23 22 31 35 37 45 50 87 91 92 81 78 75 65 62 63 55 48 47 42 39 39 35 30 27 22 18 16 15
15 16 15 13 11 11 7 15 13 16 19 16 19 20 27 27 33 47 54 57 55 90 90 89 81 81 72 64 63 58 57 51 38 37 37 34 32 30 26 21 18 15 13
18 22 19 13 15 8 14 19 22 17 20 20 21 20 26 29 34 41 44 56 70 102 94 88 85 80 71 66 53 59 57 51 45 28 37 31 29 27 23 23 19 13 7
21 18 16 17 12 17 10 10 20 19 20 21 21 26 28 30 40 43 47 52 58 84 88 93 89 81 79 63 57 56 50 37 38 40 36 30 26 25 21 23 15 8 6
24 24 18 18 17 15 6 8 20 12 17 25 32 33 36 33 49 48 50 57 58 74 79 87 77 79 70 55 48 46 46 38 34 34 34 32 25 18 22 21 14 11 6
14 16 22 20 17 17 9 13 22 14 27 28 31 29 31 40 44 46 49 57 58 67 77 53 53 63 55 41 41 42 34 32 34 32 31 25 27 22 17 21 15 10 6
8 9 18 24 19 20 15 14 30 16 28 31 29 34 36 49 45 45 48 51 48 62 66 56 56 45 41 42 44 36 34 33 33 30 32 26 33 25 12 13 14 16 14
Wind_Direction_500mb
252 260 266 255 252 260 254 257 251 255 263 261 250 244 237 224 230 214 223 239 249 263 243 236 234 223 227 227 218 218 217 217 205 209 194 189 183 192 190 185 181 184 190
249 259 267 269 260 256 251 256 256 260 253 261 258 241 239 220 216 231 236 242 258 270 239 234 232 226 227 228 222 217 218 215 217 195 199 191 189 189 184 186 186 192 185
257 264 263 261 267 259 262 258 248 250 250 252 252 249 232 218 220 225 235 228 242 272 249 235 230 223 228 230 226 217 216 217 216 194 193 191 187 186 186 188 190 180 191
260 260 267 274 274 266 259 257 251 245 248 231 247 241 224 226 220 230 218 226 227 249 247 242 233 219 226 231 224 217 214 217 220 193 188 189 183 179 185 183 177 187 174
261 271 271 276 274 268 261 257 257 248 229 241 241 232 222 223 223 215 226 222 224 225 238 238 238 217 223 223 217 213 215 214 220 199 190 184 179 179 179 187 177 172 168
267 272 270 278 273 267 262 257 251 239 233 226 236 243 215 222 207 223 219 227 225 222 218 228 238 218 225 213 207 210 212 211 209 191 185 181 176 176 180 171 164 159 153
273 268 270 273 266 260 263 255 244 229 231 225 224 231 221 216 216 215 215 222 222 214 211 214 207 211 231 213 211 215 207 205 205 191 187 177 175 173 168 163 154 145 134
268 268 269 271 268 264 257 239 237 235 234 225 220 209 205 216 214 218 219 219 215 212 218 205 208 215 226 218 211 207 189 199 184 174 171 173 175 170 160 148 142 139 172
271 264 267 264 261 251 242 241 240 232 233 227 220 193 187 211 194 205 214 216 219 209 205 207 216 216 214 209 186 167 178 184 191 184 168 173 169 162 151 151 131 127 164
255 258 270 252 238 231 248 257 251 238 223 219 214 207 207 225 181 186 211 212 218 213 210 204 212 209 204 197 180 179 183 181 176 172 170 174 164 159 152 133 129 165 162
259 239 262 216 235 255 253 246 256 232 205 207 197 193 216 225 199 230 190 207 210 210 209 210 212 197 190 184 173 178 184 191 188 188 175 162 157 150 131 137 155 164 162
244 204 210 216 238 244 203 212 211 229 200 197 194 202 207 210 220 224 199 194 191 197 199 203 195 189 186 181 180 180 180 183 170 162 155 154 159 159 151 169 160 160 171
211 169 189 197 219 215 176 215 211 211 230 211 207 206 206 210 241 226 207 185 174 172 163 175 175 178 182 175 183 176 173 166 161 151 147 145 147 153 173 164 154 160 145
160 206 174 205 178 174 189 229 221 231 232 244 217 198 198 214 238 224 210 176 162 143 151 139 174 178 178 183 177 178 162 161 151 151 150 157 151 161 155 150 149 151 150
189 160 176 181 121 140 266 276 241 221 216 223 225 216 216 218 262 246 209 171 170 150 118 149 134 167 166 155 143 141 143 146 150 157 156 156 163 166 165 162 147 151 153
158 169 169 187 225 209 266 265 225 221 239 242 194 211 207 232 268 206 180 180 169 148 131 149 151 153 153 148 147 142 143 150 158 154 147 153 156 164 172 180 181 182 174
171 173 194 206 249 237 265 246 230 180 215 213 221 202 209 218 188 151 152 162 164 159 143 142 151 139 137 135 139 141 146 141 148 146 153 157 153 159 170 176 183 172 189
169 191 199 212 231 268 294 275 240 183 192 203 205 210 201 166 154 154 138 130 144 164 146 142 144 145 145 145 150 142 145 148 139 147 148 156 173 159 161 176 184 189 197
171 185 181 183 181 210 36 111 140 167 175 183 184 187 162 151 138 135 147 133 146 158 152 135 146 153 148 141 144 147 138 141 142 147 157 161 167 171 178 187 189 193 215
172 173 162 159 118 95 86 83 93 131 151 142 134 127 142 140 144 145 139 147 138 142 146 143 152 151 145 152 136 136 139 141 141 152 161 170 171 173 182 188 198 214 237
168 163 154 136 134 102 109 89 76 112 144 138 129 141 149 143 149 146 141 144 153 152 150 151 140 143 144 142 144 147 138 141 147 154 154 163 174 183 187 198 210 198 187
153 154 151 150 106 144 118 107 95 102 117 129 134 136 141 135 146 155 148 149 163 160 157 161 155 152 151 145 143 147 150 142 139 163 159 160 183 183 183 193 178 183 203
151 158 157 159 154 165 127 113 113 91 104 116 132 131 133 143 150 150 152 155 155 167 165 157 156 157 152 146 161 159 158 152 148 150 158 152 144 159 190 175 184 190 194
167 164 164 194 181 177 175 129 128 106 118 116 125 124 114 116 142 146 151 157 158 165 166 157 154 159 157 153 153 156 138 156 152 150 160 148 163 164 186 186 196 195 201
154 169 176 168 164 164 157 123 127 122 124 116 124 128 120 125 135 144 146 158 159 167 162 163 156 161 162 164 152 149 150 153 154 163 157 162 168 179 196 195 201 210 235
135 129 158 149 160 153 148 135 130 149 128 127 123 128 129 128 126 133 137 142 147 160 160 164 163 159 169 168 153 163 165 159 165 170 183 176 180 170 177 262 237 227 245
Wind_Speed_850mb
26 27 31 34 31 28 24 24 26 30 29 27 25 31 43 42 21 28 33 49 36 40 46 41 37 44 44 39 40 45 46 46 57 54 58 54 47 49 44 41 39 33 27
26 27 33 39 35 32 30 30 30 27 27 24 27 27 29 37 38 28 28 36 29 33 41 39 36 40 40 37 39 44 46 48 59 60 61 56 52 49 46 43 36 34 27
26 29 31 47 43 40 36 39 38 32 27 27 28 28 29 31 39 47 40 35 25 24 29 37 36 36 35 34 38 45 47 46 50 64 60 55 53 50 48 42 40 32 29
27 31 35 45 41 39 40 39 36 34 26 25 28 32 27 32 31 33 31 27 28 29 24 28 34 32 30 28 35 44 49 47 48 69 64 62 58 51 44 41 36 32 21
26 33 37 41 38 37 37 37 40 35 28 30 29 25 23 29 33 26 29 29 30 30 25 24 27 31 26 28 34 37 46 48 48 66 70 62 58 50 39 41 33 27 26
28 33 37 42 35 33 36 38 35 31 30 29 26 24 22 30 29 31 29 30 25 27 27 28 20 32 30 31 30 40 44 51 50 65 62 60 62 53 46 37 33 31 26
26 32 38 35 33 33 34 29 30 31 30 28 22 24 26 28 26 30 30 27 32 29 29 29 21 23 32 33 34 38 50 59 66 63 68 60 57 45 45 40 39 26 21
25 32 35 33 31 28 24 23 29 34 34 33 28 21 17 21 30 30 32 35 30 30 31 32 30 26 36 35 34 35 54 86 68 67 60 53 48 45 45 50 42 33 24
22 26 27 27 23 18 26 27 28 30 29 32 36 21 15 19 30 35 34 30 32 35 36 33 33 41 38 30 31 42 73 56 74 73 73 62 44 49 49 49 43 28 15
21 22 27 18 13 15 20 18 19 24 27 31 32 39 21 14 26 25 30 41 36 32 31 38 39 35 40 40 48 51 54 76 80 81 81 69 62 51 56 45 33 24 18
21 11 14 8 10 14 9 10 6 13 21 25 29 27 24 20 33 23 27 30 33 30 30 32 32 36 43 50 59 56 66 56 67 81 88 71 64 47 38 32 28 25 19
12 14 9 8 11 7 6 5 8 5 10 15 22 21 22 22 21 26 23 30 27 26 26 28 30 37 50 62 54 56 68 67 88 92 75 71 65 41 30 33 29 24 27
11 10 11 10 8 7 7 7 9 9 8 9 13 20 17 17 17 14 17 24 20 21 16 24 36 47 55 60 48 78 80 93 92 85 91 74 53 49 40 34 27 26 24
11 12 11 7 4 3 5 8 7 9 9 9 9 15 16 13 12 15 17 25 23 17 22 34 42 39 41 50 77 90 105 96 89 89 66 66 47 47 41 33 27 25 24
9 11 8 4 4 2 4 6 5 7 7 5 6 14 14 16 2 15 20 28 26 26 30 36 55 56 56 90 92 95 85 76 79 64 56 51 47 38 48 39 31 28 27
13 11 6 2 2 3 5 9 5 7 8 7 6 11 10 7 12 12 21 22 23 35 41 53 52 80 90 87 83 87 86 76 65 59 52 46 31 30 33 37 33 32 24
12 8 6 4 3 3 5 5 9 8 9 15 16 14 10 9 12 15 18 20 28 43 64 65 70 81 77 88 77 70 70 64 60 57 54 43 36 33 33 26 20 21 19
11 8 7 5 3 5 5 8 5 19 15 17 14 14 13 11 12 17 28 32 35 46 71 90 77 74 86 73 69 68 66 60 56 51 47 39 45 39 28 22 20 18 15
12 11 8 5 4 2 4 5 3 15 17 12 13 16 21 19 27 28 35 29 38 62 85 97 75 79 72 65 56 62 54 50 48 46 47 46 39 31 26 24 21 16 13
14 13 11 9 7 7 12 9 11 20 11 11 13 21 23 22 31 35 37 45 50 87 91 92 81 78 75 65 62 63 55 48 47 42 39 39 35 30 27 22 18 16 15
15 16 15 13 11 11 7 15 13 16 19 16 19 20 27 27 33 47 54 57 55 90 90 89 81 81 72 64 63 58 57 51 38 37 37 34 32 30 26 21 18 15 13
18 22 19 13 15 8 14 19 22 17 20 20 21 20 26 29 34 41 44 56 70 102 94 88 85 80 71 66 53 59 57 51 45 28 37 31 29 27 23 23 19 13 7
21 18 16 17 12 17 10 10 20 19 20 21 21 26 28 30 40 43 47 52 58 84 88 93 89 81 79 63 57 56 50 37 38 40 36 30 26 25 21 23 15 8 6
24 24 18 18 17 15 6 8 20 12 17 25 32 33 36 33 49 48 50 57 58 74 79 87 77 79 70 55 48 46 46 38 34 34 34 32 25 18 22 21 14 11 6
14 16 22 20 17 17 9 13 22 14 27 28 31 29 31 40 44 46 49 57 58 67 77 53 53 63 55 41 41 42 34 32 34 32 31 25 27 22 17 21 15 10 6
8 9 18 24 19 20 15 14 30 16 28 31 29 34 36 49 45 45 48 51 48 62 66 56 56 45 41 42 44 36 34 33 33 30 32 26 33 25 12 13 14 16 14
Wind_Direction_850mb
252 260 266 255 252 260 254 257 251 255 263 261 250 244 237 224 230 214 223 239 249 263 243 236 234 223 227 227 218 218 217 217 205 209 194 189 183 192 190 185 181 184 190
249 259 267 269 260 256 251 256 256 260 253 261 258 241 239 220 216 231 236 242 258 270 239 234 232 226 227 228 222 217 218 215 217 195 199 191 189 189 184 186 186 192 185
257 264 263 261 267 259 262 258 248 250 250 252 252 249 232 218 220 225 235 228 242 272 249 235 230 223 228 230 226 217 216 217 216 194 193 191 187 186 186 188 190 180 191
260 260 267 274 274 266 259 257 251 245 248 231 247 241 224 226 220 230 218 226 227 249 247 242 233 219 226 231 224 217 214 217 220 193 188 189 183 179 185 183 177 187 174
261 271 271 276 274 268 261 257 257 248 229 241 241 232 222 223 223 215 226 222 224 225 238 238 238 217 223 223 217 213 215 214 220 199 190 184 179 179 179 187 177 172 168
267 272 270 278 273 267 262 257 251 239 233 226 236 243 215 222 207 223 219 227 225 222 218 228 238 218 225 213 207 210 212 211 209 191 185 181 176 176 180 171 164 159 153
273 268 270 273 266 260 263 255 244 229 231 225 224 231 221 216 216 215 215 222 222 214 211 214 207 211 231 213 211 215 207 205 205 191 187 177 175 173 168 163 154 145 134
268 268 269 271 268 264 257 239 237 235 234 225 220 209 205 216 214 218 219 219 215 212 218 205 208 215 226 218 211 207 189 199 184 174 171 173 175 170 160 148 142 139 172
271 264 267 264 261 251 242 241 240 232 233 227 220 193 187 211 194 205 214 216 219 209 205 207 216 216 214 209 186 167 178 184 191 184 168 173 169 162 151 151 131 127 164
255 258 270 252 238 231 248 257 251 238 223 219 214 207 207 225 181 186 211 212 218 213 210 204 212 209 204 197 180 179 183 181 176 172 170 174 164 159 152 133 129 165 162
259 239 262 216 235 255 253 246 256 232 205 207 197 193 216 225 199 230 190 207 210 210 209 210 212 197 190 184 173 178 184 191 188 188 175 162 157 150 131 137 155 164 162
244 204 210 216 238 244 203 212 211 229 200 197 194 202 207 210 220 224 199 194 191 197 199 203 195 189 186 181 180 180 180 183 170 162 155 154 159 159 151 169 160 160 171
211 169 189 197 219 215 176 215 211 211 230 211 207 206 206 210 241 226 207 185 174 172 163 175 175 178 182 175 183 176 173 166 161 151 147 145 147 153 173 164 154 160 145
160 206 174 205 178 174 189 229 221 231 232 244 217 198 198 214 238 224 210 176 162 143 151 139 174 178 178 183 177 178 162 161 151 151 150 157 151 161 155 150 149 151 150
189 160 176 181 121 140 266 276 241 221 216 223 225 216 216 218 262 246 209 171 170 150 118 149 134 167 166 155 143 141 143 146 150 157 156 156 163 166 165 162 147 151 153
158 169 169 187 225 209 266 265 225 221 239 242 194 211 207 232 268 206 180 180 169 148 131 149 151 153 153 148 147 142 143 150 158 154 147 153 156 164 172 180 181 182 174
171 173 194 206 249 237 265 246 230 180 215 213 221 202 209 218 188 151 152 162 164 159 143 142 151 139 137 135 139 141 146 141 148 146 153 157 153 159 170 176 183 172 189
169 191 199 212 231 268 294 275 240 183 192 203 205 210 201 166 154 154 138 130 144 164 146 142 144 145 145 145 150 142 145 148 139 147 148 156 173 159 161 176 184 189 197
171 185 181 183 181 210 36 111 140 167 175 183 184 187 162 151 138 135 147 133 146 158 152 135 146 153 148 141 144 147 138 141 142 147 157 161 167 171 178 187 189 193 215
172 173 162 159 118 95 86 83 93 131 151 142 134 127 142 140 144 145 139 147 138 142 146 143 152 151 145 152 136 136 139 141 141 152 161 170 171 173 182 188 198 214 237
168 163 154 136 134 102 109 89 76 112 144 138 129 141 149 143 149 146 141 144 153 152 150 151 140 143 144 142 144 147 138 141 147 154 154 163 174 183 187 198 210 198 187
153 154 151 150 106 144 118 107 95 102 117 129 134 136 141 135 146 155 148 149 163 160 157 161 155 152 151 145 143 147 150 142 139 163 159 160 183 183 183 193 178 183 203
151 158 157 159 154 165 127 113 113 91 104 116 132 131 133 143 150 150 152 155 155 167 165 157 156 157 152 146 161 159 158 152 148 150 158 152 144 159 190 175 184 190 194
167 164 164 194 181 177 175 129 128 106 118 116 125 124 114 116 142 146 151 157 158 165 166 157 154 159 157 153 153 156 138 156 152 150 160 148 163 164 186 186 196 195 201
154 169 176 168 164 164 157 123 127 122 124 116 124 128 120 125 135 144 146 158 159 167 162 163 156 161 162 164 152 149 150 153 154 163 157 162 168 179 196 195 201 210 235
135 129 158 149 160 153 148 135 130 149 128 127 123 128 129 128 126 133 137 142 147 160 160 164 163 159 169 168 153 163 165 159 165 170 183 176 180 170 177 262 237 227 245